Temperature
1 1 1 1 1 1 1 1 1 0 0 1 2 2 2 2 2 2 2 2 1 1 2 2 2 2 2 2 2 2 2 2 2 2 2 1 2 2
0 0 0 0 0 1 1 1 0 0 0 1 1 1 1 1 1 1 1 1 1 1 1 1 1 1 1 1 1 1 1 1 1 1 1 1 1 1
-0 -0 -0 -0 -0 -0 -0 -0 -0 -0 -0 0 0 0 0 0 1 0 0 0 1 1 1 1 1 1 1 1 1 1 1 1 1 1 0 0 0 0
-1 -1 -1 -1 -1 -1 -1 -1 -1 -1 -1 -1 -0 -0 -0 0 0 -0 -0 -0 -0 0 0 -0 -0 -0 0 0 0 0 0 -0 0 0 -0 -0 -0 -0
-2 -2 -2 -2 -2 -2 -2 -1 -1 -1 -1 -1 -1 -1 -1 -1 -1 -1 -1 -1 -1 -1 -1 -1 -1 -1 -1 -1 -1 -1 -0 -1 -1 -1 -1 -1 -1 -1
-3 -3 -3 -3 -2 -2 -2 -2 -2 -2 -2 -2 -2 -2 -2 -1 -1 -1 -1 -1 -1 -1 -1 -1 -1 -1 -1 -1 -1 -1 -1 -1 -1 -1 -1 -1 -1 -1
-3 -3 -3 -3 -3 -3 -3 -3 -3 -3 -3 -3 -2 -2 -2 -2 -2 -2 -2 -2 -2 -2 -2 -2 -2 -2 -2 -1 -1 -1 -1 -2 -2 -2 -2 -2 -2 -2
-4 -4 -4 -4 -4 -4 -3 -3 -3 -3 -3 -3 -3 -3 -2 -3 -3 -3 -3 -3 -3 -3 -3 -2 -3 -2 -2 -2 -2 -2 -2 -2 -2 -2 -2 -2 -2 -2
-5 -4 -4 -4 -4 -4 -4 -4 -4 -4 -3 -3 -3 -3 -3 -3 -3 -3 -4 -4 -4 -3 -3 -3 -3 -3 -3 -3 -3 -3 -3 -3 -3 -3 -3 -3 -3 -3
-5 -5 -5 -5 -5 -5 -5 -4 -4 -4 -4 -4 -3 -3 -3 -3 -3 -4 -4 -4 -4 -4 -4 -4 -4 -4 -3 -3 -3 -3 -3 -3 -3 -3 -3 -3 -3 -3
-6 -6 -5 -5 -5 -5 -5 -5 -5 -5 -5 -4 -4 -4 -4 -4 -4 -4 -5 -5 -5 -5 -5 -5 -5 -4 -4 -4 -4 -4 -4 -4 -4 -4 -4 -4 -4 -4
-6 -6 -6 -6 -6 -6 -6 -6 -5 -5 -5 -5 -5 -5 -4 -5 -5 -4 -5 -5 -5 -5 -5 -5 -5 -6 -6 -5 -5 -5 -5 -4 -4 -4 -4 -4 -4 -4
-7 -7 -6 -6 -6 -6 -6 -6 -6 -5 -6 -6 -5 -5 -5 -5 -5 -5 -5 -5 -5 -6 -6 -6 -6 -6 -6 -6 -5 -5 -5 -5 -5 -5 -5 -5 -5 -5
-7 -7 -7 -7 -7 -7 -7 -6 -6 -6 -6 -6 -6 -6 -6 -6 -6 -6 -6 -6 -6 -6 -6 -6 -6 -6 -6 -6 -6 -6 -6 -6 -5 -5 -5 -5 -5 -5
-8 -8 -8 -7 -7 -7 -7 -7 -7 -7 -7 -7 -7 -6 -6 -6 -6 -6 -6 -6 -6 -6 -6 -7 -7 -7 -7 -7 -6 -6 -6 -6 -6 -6 -6 -6 -6 -6
-9 -8 -8 -8 -8 -8 -8 -8 -8 -7 -7 -7 -7 -7 -7 -7 -7 -7 -7 -7 -7 -7 -7 -7 -7 -7 -7 -7 -7 -7 -7 -7 -6 -6 -6 -6 -6 -6
-9 -9 -9 -9 -9 -9 -9 -8 -8 -8 -8 -8 -8 -8 -8 -8 -8 -8 -8 -8 -8 -8 -8 -8 -8 -8 -8 -8 -7 -7 -7 -7 -7 -7 -7 -7 -6 -7
-10 -10 -10 -10 -10 -10 -9 -9 -9 -9 -9 -9 -9 -9 -9 -9 -9 -8 -8 -8 -8 -8 -8 -8 -8 -8 -8 -8 -8 -8 -8 -8 -7 -7 -7 -7 -7 -7
-11 -11 -11 -11 -11 -10 -10 -10 -10 -10 -10 -9 -9 -9 -9 -9 -9 -9 -9 -9 -9 -9 -9 -9 -9 -9 -9 -9 -9 -8 -8 -8 -8 -8 -8 -8 -8 -7
-12 -12 -12 -12 -11 -11 -11 -11 -10 -10 -10 -10 -10 -10 -10 -10 -10 -9 -9 -9 -9 -9 -9 -9 -9 -9 -9 -9 -9 -9 -9 -9 -9 -9 -9 -8 -8 -8
-13 -13 -12 -12 -12 -12 -12 -11 -11 -11 -10 -10 -10 -10 -10 -10 -10 -10 -10 -10 -10 -10 -10 -9 -9 -10 -10 -10 -10 -9 -9 -9 -9 -9 -9 -9 -9 -9
-14 -14 -13 -13 -13 -13 -12 -12 -12 -11 -11 -11 -11 -11 -10 -10 -10 -10 -10 -10 -10 -10 -10 -10 -10 -10 -10 -10 -10 -10 -10 -10 -10 -10 -10 -10 -10 -10
-14 -14 -14 -14 -13 -13 -13 -13 -12 -12 -12 -11 -11 -11 -11 -11 -11 -11 -11 -11 -11 -11 -11 -11 -11 -11 -11 -11 -11 -10 -10 -10 -10 -10 -10 -10 -10 -10
Wind_Speed
3 4 4 3 3 4 4 5 5 4 5 4 3 3 5 5 6 6 6 8 8 8 8 7 6 6 5 5 5 5 5 5 5 6 6 7 7 7
3 4 4 3 3 4 5 5 5 5 5 3 4 3 4 5 7 6 7 8 9 9 8 8 7 7 7 6 6 6 6 7 7 7 8 8 8 8
4 5 5 4 4 4 4 5 5 5 6 4 3 3 4 5 5 5 6 7 7 9 9 9 8 8 8 8 7 7 7 7 7 8 9 9 9 9
5 5 6 5 5 5 5 6 6 6 6 6 4 4 5 5 5 4 5 6 6 8 9 9 8 8 8 8 8 8 7 7 8 8 9 9 10 10
6 6 6 6 7 5 6 6 6 6 5 6 5 4 4 3 3 3 4 5 5 7 8 9 9 9 9 9 9 9 8 8 8 9 9 10 10 10
6 7 7 7 8 7 7 7 6 6 6 6 6 5 4 3 3 3 3 4 4 5 7 8 9 10 10 10 11 10 10 10 10 9 10 10 10 11
6 7 7 9 10 9 7 6 7 6 6 6 6 5 5 5 5 4 5 3 4 4 4 5 6 6 8 10 11 11 11 11 11 11 11 11 11 11
7 7 8 9 11 12 12 12 11 9 9 8 7 8 8 7 5 5 5 4 4 4 4 4 5 5 7 8 11 12 12 12 11 11 11 11 12 12
7 7 7 7 9 8 10 12 12 14 14 10 10 10 9 9 8 7 7 7 6 4 4 5 4 6 7 9 12 12 12 12 12 12 12 12 12 12
7 7 7 7 7 7 7 8 8 10 11 10 10 11 10 10 10 9 8 5 4 4 5 4 4 5 6 8 12 12 12 11 11 11 11 11 11 12
7 8 8 8 11 11 8 7 8 8 11 13 14 13 14 13 11 6 6 5 5 5 4 4 3 4 4 5 10 11 11 11 11 11 11 11 11 11
6 7 11 11 12 13 8 8 9 8 7 8 8 9 10 11 13 11 9 7 5 4 5 5 4 2 3 4 5 7 8 10 11 11 11 11 11 9
6 6 7 12 13 14 11 8 10 8 6 7 6 5 5 6 8 8 9 8 7 5 5 5 4 4 4 3 4 5 6 6 7 9 11 11 11 9
6 6 7 12 13 13 11 10 11 9 4 5 5 5 5 5 5 6 7 8 8 7 8 8 5 6 4 4 4 3 4 6 6 6 7 9 10 10
6 9 11 12 11 9 11 12 8 5 4 5 6 6 5 5 5 4 5 5 4 5 7 9 7 6 5 5 4 4 3 4 6 5 5 5 6 6
6 8 10 10 8 7 7 6 4 4 5 5 5 5 4 4 5 5 5 4 3 3 5 8 9 7 5 5 5 5 4 4 4 5 5 5 6 7
5 3 3 3 4 3 3 4 3 3 4 4 4 4 4 5 5 5 4 4 5 4 4 4 5 6 5 5 5 6 5 4 5 4 3 4 5 7
5 3 3 4 4 4 4 3 3 4 4 4 4 5 5 5 5 5 5 5 5 5 5 4 3 1 1 3 7 6 5 4 4 4 3 4 5 5
4 3 3 3 3 3 3 4 4 4 4 4 5 5 5 5 5 5 5 5 5 5 5 5 5 4 4 4 3 6 5 4 3 4 4 4 5 5
3 3 3 3 3 3 3 3 3 3 3 4 4 5 5 5 6 6 6 6 5 5 4 5 6 6 6 5 3 3 7 5 4 5 4 3 4 7
4 4 4 3 3 3 3 3 3 3 3 3 4 4 4 5 5 6 6 7 6 5 6 6 5 5 2 2 2 3 3 7 7 5 3 3 3 3
4 4 4 4 4 3 3 3 3 3 3 3 3 3 4 4 5 6 6 6 5 5 5 3 3 3 3 4 5 4 3 3 5 7 7 7 4 4
4 4 4 4 4 3 3 3 4 3 3 2 3 3 3 3 3 3 4 5 4 4 4 3 2 2 3 4 4 4 4 3 2 2 3 6 8 9
Wind_Direction
233 232 235 247 230 215 203 199 199 225 238 227 221 223 223 226 231 227 236 241 246 254 256 257 259 257 250 251 256 259 260 261 267 267 270 270 274 279
233 230 238 246 245 226 211 210 212 217 236 224 223 223 222 233 233 231 238 243 244 250 251 252 252 247 245 245 246 250 252 251 257 263 265 269 272 274
239 231 234 234 237 235 223 216 215 214 234 252 245 228 218 223 239 234 236 239 243 244 245 246 243 244 244 248 245 249 250 251 254 259 262 264 268 270
242 240 240 236 234 239 228 224 222 218 222 239 245 226 228 222 223 229 237 237 239 239 239 239 238 243 248 248 246 247 249 251 255 256 260 261 264 268
238 240 243 235 239 240 236 229 228 227 222 226 236 226 226 223 215 232 239 239 240 240 237 237 241 245 247 245 246 247 247 247 253 255 258 262 262 265
241 239 239 234 235 234 237 231 224 224 222 221 227 223 223 209 202 218 236 226 242 246 242 245 247 248 247 250 249 246 247 247 248 254 258 259 261 264
246 244 244 242 239 236 238 234 224 221 220 223 224 227 222 207 214 211 230 241 239 231 238 246 245 247 248 251 253 245 246 249 250 253 256 257 258 263
247 249 249 249 247 248 249 245 234 224 219 221 226 223 224 216 213 213 219 229 248 215 208 242 239 245 249 244 250 251 247 248 250 253 256 255 257 259
245 247 252 250 250 247 251 252 249 243 233 222 223 223 219 210 204 213 216 225 236 209 200 242 232 242 247 250 253 252 250 247 250 254 255 255 258 259
246 244 245 249 247 247 245 248 248 245 242 234 226 225 220 212 206 210 216 226 235 216 201 238 233 240 255 251 248 247 249 250 251 254 256 257 260 261
250 249 247 244 251 250 245 245 252 256 254 249 242 235 230 224 213 195 195 206 230 227 206 217 232 245 252 248 245 243 247 253 254 257 259 258 259 258
256 252 252 253 252 251 244 239 243 249 246 251 251 243 231 222 215 202 193 202 215 228 201 200 208 212 250 244 239 242 249 255 257 259 261 261 258 254
258 255 254 259 259 256 253 243 245 244 232 228 230 227 219 214 215 216 208 202 209 227 201 193 208 211 223 247 247 240 240 251 259 261 259 260 258 248
259 259 260 264 264 262 259 256 255 247 224 214 214 216 213 212 214 219 221 226 227 228 206 198 209 208 215 233 247 236 242 249 252 258 261 263 259 251
269 268 268 266 266 265 261 257 251 230 216 221 217 217 211 206 207 216 221 222 232 230 215 214 212 206 207 223 230 229 246 245 242 241 252 255 255 254
282 276 275 274 272 269 268 262 241 223 219 227 224 216 197 196 206 203 207 199 210 232 227 217 210 202 213 223 228 237 235 228 232 242 254 262 261 254
280 269 271 267 259 259 258 254 239 232 235 225 219 215 208 208 213 203 200 199 209 217 220 211 212 214 218 218 226 233 236 241 240 236 249 262 259 252
291 276 266 261 258 254 251 251 243 237 231 225 219 216 214 213 216 208 202 206 213 216 209 197 183 193 260 265 226 226 234 238 240 237 243 256 267 262
312 303 292 283 277 274 262 251 246 243 237 225 221 218 219 218 215 212 209 210 216 214 203 190 187 192 213 247 250 221 221 230 234 249 243 248 261 268
316 305 299 297 292 285 280 268 258 250 240 233 224 218 216 215 217 215 209 207 213 209 204 199 198 200 208 221 241 256 238 228 229 241 255 268 273 276
314 305 300 295 292 292 290 280 263 254 249 241 230 220 217 216 220 214 210 214 213 207 209 216 215 207 183 160 227 263 260 249 236 231 235 256 274 274
311 310 307 304 301 296 294 291 282 269 254 246 246 230 219 219 220 214 209 206 211 212 214 212 178 177 189 204 222 241 269 284 266 256 248 241 226 227
303 305 307 309 306 301 295 290 287 282 268 258 254 241 221 218 219 213 208 203 197 198 196 199 204 198 208 206 217 232 239 252 269 275 282 268 258 259
Height
1497 1498 1499 1501 1502 1504 1505 1507 1508 1507 1507 1508 1511 1512 1514 1516 1518 1519 1520 1521 1522 1524 1525 1526 1527 1528 1529 1530 1531 1532 1532 1532 1533 1534 1534 1535 1535 1535
1492 1493 1494 1495 1497 1498 1499 1501 1502 1503 1502 1502 1504 1507 1509 1511 1512 1513 1514 1516 1517 1518 1519 1520 1521 1523 1524 1525 1525 1526 1527 1527 1528 1529 1529 1529 1530 1530
1486 1487 1488 1490 1491 1492 1494 1494 1495 1497 1496 1496 1499 1501 1503 1505 1506 1507 1509 1510 1511 1512 1513 1514 1516 1517 1518 1519 1520 1521 1521 1522 1522 1523 1523 1523 1524 1524
1479 1481 1482 1483 1485 1486 1487 1488 1489 1490 1491 1490 1492 1494 1496 1498 1499 1501 1502 1503 1505 1506 1507 1508 1510 1511 1512 1513 1514 1515 1515 1516 1516 1517 1517 1518 1518 1518
1474 1474 1475 1477 1478 1479 1481 1482 1483 1484 1484 1485 1485 1488 1489 1491 1493 1495 1496 1497 1498 1499 1500 1502 1503 1504 1506 1507 1508 1508 1509 1509 1510 1510 1511 1512 1512 1512
1467 1468 1469 1470 1471 1473 1474 1475 1476 1477 1478 1479 1479 1481 1483 1485 1487 1488 1489 1490 1491 1493 1494 1495 1496 1497 1499 1500 1501 1502 1502 1503 1503 1504 1505 1505 1505 1506
1461 1462 1463 1464 1465 1466 1467 1468 1469 1470 1471 1472 1473 1474 1476 1477 1479 1481 1482 1483 1484 1486 1487 1488 1490 1490 1491 1493 1494 1495 1495 1496 1497 1497 1498 1499 1499 1499
1454 1455 1456 1457 1458 1459 1460 1461 1463 1463 1464 1465 1465 1466 1468 1470 1473 1474 1476 1477 1477 1479 1480 1481 1483 1483 1484 1485 1486 1487 1488 1489 1490 1490 1491 1491 1492 1492
1448 1449 1449 1450 1451 1452 1452 1454 1455 1456 1457 1458 1458 1459 1461 1463 1465 1467 1468 1469 1470 1472 1473 1473 1475 1476 1477 1478 1480 1480 1481 1482 1483 1484 1484 1485 1485 1485
1442 1442 1443 1443 1444 1445 1445 1446 1447 1448 1449 1450 1451 1452 1454 1456 1458 1459 1461 1463 1464 1466 1467 1467 1467 1469 1470 1471 1472 1473 1474 1475 1476 1477 1477 1478 1478 1478
1435 1436 1436 1437 1437 1438 1439 1438 1439 1440 1442 1443 1444 1445 1447 1449 1451 1453 1454 1455 1456 1458 1460 1461 1461 1462 1462 1463 1465 1467 1468 1468 1469 1470 1470 1471 1471 1471
1429 1429 1430 1430 1431 1431 1432 1432 1432 1432 1434 1435 1436 1437 1439 1441 1443 1444 1446 1448 1448 1450 1452 1454 1454 1455 1455 1456 1458 1459 1460 1461 1462 1463 1463 1464 1464 1464
1422 1422 1423 1423 1424 1425 1425 1425 1425 1426 1427 1427 1428 1429 1431 1433 1435 1437 1439 1440 1441 1442 1445 1447 1447 1449 1449 1449 1450 1452 1453 1454 1455 1456 1456 1457 1457 1457
1416 1416 1416 1417 1417 1418 1419 1419 1419 1420 1420 1421 1421 1422 1424 1426 1428 1430 1432 1433 1434 1436 1437 1439 1440 1441 1442 1442 1442 1444 1446 1447 1448 1449 1449 1450 1450 1451
1410 1410 1410 1410 1411 1411 1411 1412 1413 1413 1413 1414 1414 1416 1418 1420 1421 1423 1424 1426 1428 1429 1430 1432 1433 1434 1436 1436 1436 1437 1438 1439 1441 1442 1442 1443 1444 1444
1404 1404 1404 1404 1404 1404 1405 1405 1405 1406 1407 1408 1408 1410 1411 1413 1414 1416 1417 1419 1420 1422 1424 1425 1426 1428 1428 1430 1431 1431 1432 1433 1434 1436 1436 1437 1437 1438
1399 1398 1398 1398 1398 1397 1398 1398 1399 1399 1400 1401 1402 1403 1404 1406 1407 1409 1411 1412 1413 1414 1416 1418 1420 1421 1423 1424 1425 1425 1426 1427 1428 1429 1430 1430 1431 1431
1395 1393 1392 1392 1392 1392 1392 1392 1393 1393 1394 1395 1396 1397 1398 1399 1400 1402 1404 1405 1406 1407 1409 1410 1413 1415 1416 1418 1420 1419 1420 1421 1422 1423 1424 1423 1423 1424
1389 1388 1387 1387 1387 1387 1386 1387 1387 1388 1389 1390 1390 1391 1392 1393 1394 1395 1397 1398 1400 1401 1402 1404 1406 1408 1409 1410 1412 1415 1415 1415 1416 1417 1418 1418 1417 1417
1384 1383 1383 1382 1382 1382 1381 1381 1382 1382 1383 1383 1384 1385 1386 1387 1388 1389 1391 1392 1394 1395 1396 1398 1400 1402 1404 1405 1406 1407 1410 1410 1411 1411 1411 1412 1412 1412
1380 1379 1378 1378 1377 1377 1377 1377 1377 1377 1377 1378 1379 1380 1380 1381 1382 1383 1385 1386 1388 1389 1390 1392 1395 1398 1399 1400 1401 1401 1403 1405 1406 1406 1406 1406 1405 1405
1376 1375 1375 1374 1373 1373 1372 1372 1372 1372 1372 1372 1373 1374 1374 1375 1376 1378 1379 1380 1382 1384 1385 1387 1390 1392 1393 1394 1395 1395 1397 1399 1400 1401 1402 1401 1400 1399
1372 1372 1371 1370 1370 1369 1369 1368 1368 1367 1367 1368 1368 1369 1370 1370 1371 1373 1374 1375 1377 1379 1380 1382 1384 1386 1388 1389 1390 1391 1392 1393 1394 1395 1396 1396 1396 1396